964  
ASUS46 KPQR 230710  
RWROR  
 
OREGON REGIONAL WEATHER ROUNDUP  
NATIONAL WEATHER SERVICE PORTLAND OR  
1200 AM PDT WED AUG 23 2017  
 
NOTE: "FAIR" INDICATES FEW OR NO CLOUDS BELOW 12,000 FEET WITH  
NO SIGNIFICANT WEATHER AND/OR S TO VISIBILITY
.  
 
ORZ001>013-230800-  
NORTHWEST OREGON  
 
 
CITY SKY/WX TMP DP RH WIND PRES REMARKS
 
ASTORIA CLOUDY 58 57 97 SW3 30.09S FOG  
NEWPORT FOG 57 57 100 N5 30.11F VSB 1  
PORTLAND CLEAR 68 59 73 NW6 30.04R  
VANCOUVER WA CLEAR 68 60 75 NW3 30.03R  
SCAPPOOSE CLEAR 66 58 75 N6 30.03R  
HILLSBORO CLEAR 66 32 28 NW5 30.03R  
AURORA NOT AVBL  
MCMINNVILLE CLEAR 62 58 86 W9 30.04R  
SALEM CLEAR 66 55 67 CALM 30.03R  
CORVALLIS CLEAR 61 55 82 W7 30.06R  
EUGENE PTCLDY 64 56 75 CALM 30.05R  

 
 
ORZ021-028-230800-  
SOUTHWEST OREGON  
 
 
CITY SKY/WX TMP DP RH WIND PRES REMARKS
 
NORTH BEND CLOUDY 59 57 93 N6 30.10S  
BROOKINGS MOCLDY 54 52 94 CALM 30.03F FOG  
ROSEBURG PTCLDY 70 58 65 N3 30.04S  
SEXTON SUMMIT CLOUDY 67 52 58 SE5 30.16S HAZE  
GRANTS PASS CLOUDY 72 59 64 CALM 30.06S  
MEDFORD MOCLDY 75 57 53 E3 30.02F HAZE  

 
 
ORZ014>016-041-230800-  
COLUMBIA GORGE  
 
 
CITY SKY/WX TMP DP RH WIND PRES REMARKS
 
TROUTDALE CLEAR 69 59 70 VRB3 30.03R  
HOOD RIVER CLEAR 70 55 60 CALM 29.99S  
THE DALLES CLEAR 80 57 45 NW13G22 29.92S  

 
 
ORZ029>031-041-044-049-050-061>064-502-503-505>511-230800-  
EASTERN OREGON  
 
 
CITY SKY/WX TMP DP RH WIND PRES REMARKS
 
MADRAS N/A N/A N/A N/A MISG N/A  
REDMOND PTCLDY 64 49 57 CALM 30.09S HAZE  
BEND PTCLDY 64 48 55 SW3 30.11F  
PRINEVILLE PTCLDY 63 50 63 S5 30.10F  
KLAMATH FALLS CLOUDY 64 57 78 W6 30.19F  
LAKEVIEW CLOUDY N/A N/A N/A E6 30.23  
HERMISTON CLEAR 77 55 46 SW13 29.91R  
PENDLETON CLEAR 73 47 39 SW13 29.97R  
JOHN DAY MOCLDY 75 41 29 CALM 30.08F  
MEACHAM PTCLDY 54 38 54 CALM 30.12R  
LA GRANDE NOT AVBL  
BAKER CITY CLEAR 64 47 53 S7 30.06R  
BURNS MOCLDY 68 38 33 W8 30.08S  
ROME N/A 82 45 27 S16G23 30.07R  
ONTARIO PTCLDY 63 54 72 CALM 29.97R  

 
 
 
CLICK HERE TO GO TO PREVIOUS BULLETINS.

The Nexlab OR Page Main Text Page